Other Public Products
Issued by NWS Grand Forks, ND

Home | Current Version | Previous Version | Text Only | Print | Product List | Glossary On
Versions: 1 2 3 4 5 6 7 8 9 10 11 12 13 14 15 16 17 18 19 20 21 22 23 24 25 26 27 28 29 30 31 32 33 34 35 36 37 38 39 40 41 42 43 44 45 46 47 48 49 50
000
FPUS83 KFGF 302131
OPUFGF
PRAIRIE TO PINES WEATHER ROUNDUP
NATIONAL WEATHER SERVICE EASTERN NORTH DAKOTA/GRAND FORKS ND
400 PM CDT WED JUL 30 2014

 **SATELLITE DATA USED TO AUGMENT SKY COVER AT AUTOMATED STATIONS**
 *****  WEATHER ACROSS EASTERN NORTH DAKOTA  *****

CITY           SKY/WX    TMP DP  RH WIND       PRES   REMARKS
GRAND FORKS    MOSUNNY   81  58  45 N7        30.06F
GRAND FORKS AF MOSUNNY   80  56  43 N12       30.08F
GRAND CITY NWS   N/A     79 N/A N/A N7          N/A
BUXTON           N/A     81  56  42 NW5         N/A
DEVILS LAKE    SUNNY     79  55  44 N10       30.10S
FARGO          MOSUNNY   82  53  36 NW10      30.08S
WAHPETON ARPT  PTCLDY    79  46  31 NW5       30.09F
$$

 *****  WEATHER ACROSS CENTRAL AND WESTERN NORTH DAKOTA  *****

CITY           SKY/WX    TMP DP  RH WIND       PRES   REMARKS
JAMESTOWN      SUNNY     79  50  36 W7        30.12F
BISMARCK       PTSUNNY   81  55  40 SE3       30.13S
MINOT          SUNNY     79  51  37 N6        30.13F
MINOT AFB      SUNNY     79  57  46 NW8       30.13F
GARRISON         N/A     77  58  51 N5        30.14F
WILLISTON      SUNNY     84  47  27 NE10      30.15F
DICKINSON      MOSUNNY   82  52  35 N7        30.15F
HETTINGER      MOSUNNY   81  51  35 NE10      30.17F
$$

 *****  OTHER OBSERVATIONS NORTHEAST NORTH DAKOTA  *****

CITY           SKY/WX    TMP DP  RH WIND       PRES   REMARKS
WALHALLA       FAIR      79  54  41 N8          N/A
LANGDON        FAIR      81  52  36 NW10      30.11S
CAVALIER       FAIR      81  54  39 N6        30.07F
GRAFTON        FAIR      79  52  38 N6        30.07S
CANDO          FAIR      77  57  50 NW9       30.12F
FORT TOTTEN      N/A     81  60  48 NW2       29.95
ROLLA            N/A     75  54  46 NW10      30.14F
RUGBY          FAIR      75  63  64 NW7       30.12S
 ***** THE ABOVE OBSERVATIONS ARE NON NWS ARE NOT QUALITY
        CONTROLLED AND MAY MIS-REPORT RAIN FOR SNOW...
$$

 *****  OTHER OBSERVATIONS SOUTHEAST NORTH DAKOTA *****

CITY           SKY/WX    TMP DP  RH WIND       PRES   REMARKS
COOPERSTOWN    NOT AVBL
VALLEY CITY    FAIR      81  52  36 N7        30.12S
OAKES          NOT AVBL
GWINNER        CLEAR     81  54  39 N9        30.12S
BUFFALO          N/A     80  48  32 N5          N/A
WYNDMERE       NOT AVBL
 ***** THE ABOVE OBSERVATIONS ARE NON NWS ARE NOT QUALITY
       CONTROLLED AND MAY MIS-REPORT RAIN FOR SNOW...
$$

  *****  WEATHER ACROSS NORTHERN MINNESOTA  *****

CITY           SKY/WX    TMP DP  RH WIND       PRES   REMARKS
FLAG ISLAND    MOSUNNY   77  54  44 N14       30.01S
WARROAD        MOSUNNY   79  59  50 W9        30.04S
ROSEAU         SUNNY     79  61  53 W9G16     30.04F
HALLOCK        SUNNY     81  54  39 N7        30.06S
THF RVR FALLS  PTSUNNY   77  55  47 NW10      30.07F
HALSTAD          N/A     81  52  36 N5          N/A
FOSSTON        SUNNY     77  54  44 NW9       30.09S
BAUDETTE       SUNNY     78  55  44 NW8       30.04S
WASKISH        PTSUNNY   77  59  53 W7        30.04S
CROOKSTON      MOSUNNY   79  55  44 NW8       30.08S
$$
  *****  WEATHER ACROSS CENTRAL AND WEST MINNESOTA  *****

CITY           SKY/WX    TMP DP  RH WIND       PRES   REMARKS
BEMIDJI        MOSUNNY   77  56  47 NW12      30.07S
PARK RAPIDS    MOSUNNY   78  53  41 NW13      30.07F
WADENA         SUNNY     77  55  47 NW8       30.08F
DETROIT LAKES  SUNNY     77  50  38 N9        30.11F
MOORHEAD       SUNNY     79  54  41 N6        30.09S
FERGUS FALLS   SUNNY     79  48  34 N5        30.09S
ELBOW LAKE     FAIR      76  57  50 NW6       30.10S
MORRIS MN      SUNNY     81  55  41 NW9       30.10S
STAPLES        SUNNY     79  50  36 NW12      30.07F
WHEATON        MOSUNNY   75  55  50 W7        30.11F
$$
  *****  WEATHER ELSEWHERE ACROSS MINNESOTA  *****

CITY           SKY/WX    TMP DP  RH WIND       PRES   REMARKS
DULUTH         MOSUNNY   78  56  46 NW14G23   29.98F
INTRNTL FALLS  PTSUNNY   76  56  49 N15       29.99F
ELY            MOSUNNY   73  57  56 NW7       29.98F
CLOQUET        MOSUNNY   79  54  41 W14G20    30.00S
BRAINERD       PTSUNNY   76  55  48 N7        30.06F
HIBBING        MOSUNNY   79  56  45 W15G21    30.00F
ALEXANDRIA     MOSUNNY   77  54  44 W9        30.11F
SAINT CLOUD    MOSUNNY   83  53  35 VRB7      30.06S
MINNEAPOLIS    MOSUNNY   81  54  39 NW13G21   30.04F
$$

  *****  WEATHER ACROSS SOUTH DAKOTA  *****

CITY           SKY/WX    TMP DP  RH WIND       PRES   REMARKS
SIOUX FALLS    MOSUNNY   79  54  41 NW6       30.12F
BROOKINGS      NOT AVBL
WATERTOWN      MOSUNNY   77  53  43 N7        30.13F
HURON          MOSUNNY   82  54  37 NE7       30.11F
SISSETON         N/A     80  55  42 N6        30.10S
ABERDEEN       MOSUNNY   80  54  40 N7        30.11S
MITCHELL       MOSUNNY   80  54  40 VRB3      30.12F
PIERRE         MOSUNNY   87  53  31 VRB7      30.08F
MOBRIDGE       MOSUNNY   81  57  43 NE8       30.09F
RAPID CITY     MOSUNNY   85  42  22 NW12      30.17F
$$

  *****  SOME WEATHER IN NEARBY STATES *****

CITY           SKY/WX    TMP DP  RH WIND       PRES   REMARKS
GLASGOW MT     SUNNY     91  45  20 S10       30.11F
GREAT FALLS MT PTSUNNY   92  38  15 S9        30.11F
CHEYENNE WY    CLOUDY    60  56  86 S8        30.38S
SCOTTSBLUFF NE CLOUDY    76  51  41 VRB3      30.26S
OMAHA NE       MOSUNNY   82  51  34 VRB6      30.11F
DES MOINES IA  MOSUNNY   82  54  37 NW8       30.08F
DAVENPORT IA   MOSUNNY   77  58  51 NW8       30.06S
CHICAGO IL     PTSUNNY   72  57  59 NE10      30.02S
EAU CLAIRE WI  MOSUNNY   77  57  50 SW9       30.02F
LA CROSSE WI   SUNNY     79  57  46 NW10      30.04F
$$

  *****  SOME NATIONAL WEATHER *****

CITY           SKY/WX    TMP DP  RH WIND       PRES   REMARKS
LA GUARDIA NY  MOSUNNY   80  47  31 W12G18    30.00R
RALEIGH NC     MOSUNNY   77  63  61 E8        30.05F
ATLANTA GA     MOSUNNY   83  53  35 E7        30.03F
NEW ORLEANS LA MOSUNNY   87  61  41 N9        30.01F
OKLAHOMA CITY  LGT RAIN  72  68  87 SE10      29.99F
ALBUQUERQUE NM PTSUNNY   85  53  33 W6        30.18F
SALT LAKE CITY PTSUNNY   76  58  53 SW3       30.19F
LOS ANGELES CA PTSUNNY   78  60  53 W12       29.94F
BOISE ID       MOSUNNY   90  49  24 VRB6      30.09F
SEATTLE WA     MOSUNNY   81  50  33 N13       30.15F
$$

*** WEATHER ACROSS MANITOBA...SASKATCHEWAN AND ONTARIO ***
                ***ONTARIO***

CITY           SKY/WX    TMP DP  RH WIND       PRES   REMARKS
GERALDTON      CLOUDY    63  54  72 N12       29.90R
THUNDER BAY    CLOUDY    70  57  64 E7        29.93S
SIOUX LOOKOUT  PTSUNNY   75  50  41 N7        29.98F
TORONTO        PTSUNNY   73  52  46 W12       29.93F
BIG TROUT LK   SUNNY     70  46  43 N9G18     29.96F
PICKLE LAKE    PTSUNNY   72  45  37 N7        29.95F
DRYDEN         SUNNY     75  52  43 N7        29.99F
KENORA         PTSUNNY   77  55  47 NW8       30.02F
$$
                *** MANITOBA***

CITY           SKY/WX    TMP DP  RH WIND       PRES   REMARKS
BRANDON        PTSUNNY   81  57  44 VRB3      30.10F
DAUPHIN        MOSUNNY   79  64  61 SW6       30.07F
ISLAND LAKE    PTSUNNY   77  50  38 NE7       30.05S
PILOT MOUND      N/A     77  54  44 NW5         N/A
THE PAS        MOSUNNY   86  54  32 N5        30.05S
THOMPSON       MOSUNNY   81  54  39 CALM      30.06R
WINNIPEG       MOSUNNY   82  61  47 NW12      30.05F
LYNN LAKE      SUNNY     86  48  26 N6        30.07S
CHURCHILL      SUNNY     68  55  64 E13       30.11R
GILLAM         CLOUDY    75  52  43 E2        30.07F
$$
                ***SASKATCHEWAN***

CITY           SKY/WX    TMP DP  RH WIND       PRES   REMARKS
ESTEVAN        MOSUNNY   77  57  50 N7        30.16F
KINDERSLEY     MOSUNNY   82  64  54 S10       30.05F
LLOYDMINSTER   MOSUNNY   81  64  57 E6        30.07S
PRINCE ALBERT  MOSUNNY   81  63  54 SE5       30.10S
REGINA         PTSUNNY   75  61  60 S8        30.14S
YORKTON        SUNNY     79  54  41 VRB2      30.13S


USA.gov is the U.S. government's official web portal to all federal, state and local government web resources and services.